Torna al catalogo

ARIANE 44LP+ R/B

AttivoGTO
NORAD 23127·ROCKET BODY·🇫🇷 France

Lanciato Jun 17, 1994 da Guiana Space Centre

Loading…

TLE

In scadenzaSource: Space-Track

Epoca: Sep 14, 2026, 11:44 UTC

1 23127U 94034D   26257.48927647  .00000062  00000-0  42597-3 0  9992
2 23127   7.3348 276.7936 7225817 196.5699 113.1154  2.26782655263650

Traccia ARIANE 44LP+ R/B in tempo reale con AllMySat

Download on the App Store